Wind_Speed
25 28 31 32 34 34 32 35 39 38 37 34 30 29 30 31 30 26 23 20 18 18 18 19 19 19 20 21 21 20 18 16 16 17 17 19 19 18 18 19 17 15 14 12 12 11 10 10 11 11 12 13 12 11 11 10 9 9 8 6 6 6 6 7 8 8 9 9 9 9 9 8 7 8 8 8 8 8 8 9 7 5 3 2 2 3
25 26 28 28 28 29 29 32 39 38 31 25 25 27 26 25 25 24 22 19 18 17 17 17 17 16 17 20 20 19 18 17 17 19 19 19 18 17 17 18 16 13 13 12 11 10 10 11 11 12 13 13 12 11 11 10 9 8 8 7 7 7 7 7 8 9 10 10 10 9 9 8 7 8 8 8 8 8 8 8 7 4 2 2 3 4
24 25 28 27 23 24 27 31 37 35 23 13 14 20 22 22 22 23 22 20 18 17 17 18 17 15 15 17 18 18 18 18 18 18 18 17 17 17 17 16 14 13 12 12 10 10 10 11 11 12 13 12 12 12 11 9 9 8 7 7 7 8 7 8 8 9 10 10 10 9 8 7 7 8 8 7 7 8 8 7 5 3 1 2 4 5
25 25 27 25 21 22 27 30 33 30 21 15 14 16 19 20 21 22 22 20 18 18 18 19 18 14 13 15 16 18 19 19 17 16 17 17 17 16 15 15 14 12 11 10 9 10 10 11 12 12 12 12 12 12 11 10 9 8 8 7 8 8 8 8 8 10 10 11 10 9 8 7 7 8 7 6 7 8 8 6 4 2 2 4 5 6
24 21 23 21 19 24 28 28 27 25 20 16 15 17 20 18 17 19 19 18 17 17 18 19 17 13 13 14 15 17 18 16 14 15 16 17 16 15 14 14 13 11 10 9 9 10 11 12 12 12 12 12 12 12 11 10 9 9 8 7 8 8 8 8 9 10 11 11 10 8 7 7 7 8 7 6 6 7 6 5 3 1 4 5 6 7
17 16 18 17 18 25 27 25 22 19 18 16 13 13 16 14 13 15 17 16 15 15 15 16 15 14 14 13 13 15 15 14 14 14 15 15 15 13 12 12 12 11 10 10 10 10 11 12 12 12 12 13 13 12 11 10 10 9 8 7 8 8 8 9 10 11 11 11 9 8 7 7 7 7 6 5 6 6 5 4 2 3 5 6 7 7
15 16 17 16 18 21 22 20 17 15 16 14 9 7 9 10 10 12 14 14 12 11 9 9 11 12 11 11 11 13 14 14 14 14 15 16 14 12 12 12 11 11 10 10 10 11 12 13 13 13 13 13 13 12 12 11 10 10 8 7 8 8 9 10 11 12 12 11 9 7 7 8 7 7 6 5 5 5 4 4 3 4 5 7 7 7
18 19 17 16 17 17 15 14 11 11 12 9 6 7 7 6 8 10 11 11 10 8 7 7 8 8 8 10 11 12 13 14 13 13 15 16 13 11 11 11 11 11 10 10 11 12 13 14 13 14 14 14 13 13 12 11 10 10 9 8 8 9 10 11 12 12 12 10 8 7 8 8 8 7 5 5 5 5 4 5 4 5 5 6 7 8
16 17 18 17 17 14 11 10 8 8 9 7 7 7 6 3 3 4 5 8 9 8 7 7 7 7 7 8 8 9 10 12 13 13 14 15 13 11 11 11 11 10 10 10 11 13 14 14 13 14 14 14 14 13 12 11 10 10 10 9 9 10 11 12 13 13 12 10 8 8 8 8 8 7 6 5 5 4 5 6 5 5 5 6 7 9
13 14 16 16 15 13 10 8 7 8 8 6 6 6 5 4 2 1 1 5 10 8 6 6 5 6 7 7 6 6 8 10 11 11 13 14 13 10 10 10 10 10 10 10 12 13 14 13 12 13 15 15 14 14 13 12 11 11 10 10 10 11 12 13 13 13 12 10 9 9 9 9 8 7 6 5 5 5 6 7 6 6 6 6 8 10
14 14 14 14 13 12 10 9 8 7 5 3 2 3 5 4 2 2 5 7 8 7 6 6 5 5 7 8 7 6 7 8 9 10 13 12 10 9 9 9 10 10 9 10 11 12 13 13 12 14 16 16 15 15 14 13 13 12 12 11 11 12 13 13 14 14 12 11 10 10 10 9 9 8 7 6 5 5 6 7 7 7 7 8 9 10
15 14 13 12 12 13 13 11 9 7 4 2 3 4 4 2 2 3 6 8 7 6 6 6 6 5 6 8 7 6 7 7 8 10 11 9 7 8 9 9 9 10 9 9 10 11 12 13 14 16 18 17 16 16 15 14 14 14 13 12 12 13 14 15 14 14 13 12 11 11 11 10 9 9 8 7 6 6 7 8 8 9 9 9 10 11
13 12 10 9 8 10 11 11 9 6 4 3 4 5 5 4 3 4 7 8 7 7 5 4 4 4 5 7 7 6 6 6 6 7 6 4 5 7 7 7 8 9 9 9 9 10 11 12 14 16 17 17 17 17 16 15 15 14 14 13 14 14 14 16 15 15 14 13 12 12 12 11 11 10 10 8 7 6 7 9 9 9 10 11 11 12
13 10 8 8 8 8 9 10 8 6 4 4 5 5 4 4 1 4 6 7 6 6 5 4 4 3 3 4 5 4 3 3 2 3 3 3 4 5 5 6 7 7 8 8 9 9 10 12 14 15 16 17 17 17 16 15 15 15 15 14 14 14 15 16 16 16 16 15 13 13 13 12 12 12 11 10 9 7 8 9 10 10 11 12 13 13
13 10 9 10 10 10 10 9 7 5 5 4 4 4 3 3 4 6 5 5 5 4 4 4 3 2 1 1 2 3 3 3 3 2 3 4 4 4 5 6 8 8 8 8 8 9 10 11 12 14 15 17 17 17 17 16 16 16 15 13 14 14 15 16 17 17 17 16 15 15 14 13 13 13 12 12 10 9 8 9 11 11 12 13 14 14
13 11 11 11 10 10 12 11 8 7 6 5 5 4 5 6 6 5 5 4 4 4 4 3 3 2 2 0 1 2 3 3 3 2 3 3 4 4 6 7 9 9 9 9 9 9 9 9 11 13 14 16 16 16 16 15 15 16 15 13 13 14 15 16 17 17 17 16 15 16 15 14 14 14 14 13 12 11 10 10 11 12 13 14 15 14
12 11 11 12 10 10 11 11 8 8 8 7 7 6 5 6 4 4 4 3 3 3 2 2 4 4 3 2 3 3 3 2 2 3 3 2 3 4 6 7 9 10 10 10 10 10 10 10 11 12 14 14 15 15 15 15 15 16 15 14 13 14 15 15 16 18 17 17 16 17 16 16 15 15 15 15 14 12 11 11 11 13 13 14 15 15
12 10 10 11 10 9 10 10 8 8 9 9 8 6 5 4 4 3 2 2 3 3 2 2 5 6 4 3 4 4 4 3 2 2 2 3 4 5 6 6 7 9 10 10 11 11 11 11 12 12 13 13 14 14 14 14 15 16 16 15 14 14 14 14 15 17 18 17 17 17 17 17 16 16 16 16 15 14 13 12 12 13 14 15 15 16
11 10 9 9 10 9 8 9 7 5 6 8 6 4 4 3 3 2 3 3 3 3 2 2 3 5 5 3 3 3 3 2 1 1 1 3 5 5 5 7 7 7 7 9 11 12 12 11 10 11 11 12 13 13 14 14 15 16 16 15 15 15 15 14 15 17 18 19 18 18 18 18 18 17 17 17 16 16 15 14 13 14 15 15 16 16
11 10 8 7 8 7 6 7 7 4 4 5 3 3 4 2 2 3 3 3 3 1 1 2 4 6 6 5 3 3 3 0 1 0 2 1 4 4 5 6 6 5 5 6 9 11 11 10 9 11 11 12 13 13 13 14 16 17 16 16 16 16 15 15 15 16 18 20 19 18 18 19 18 18 18 18 17 17 17 16 15 15 15 16 16 16
11 11 9 7 7 7 6 7 7 5 4 4 3 4 4 3 3 4 3 2 1 1 2 1 4 5 6 5 2 1 2 1 2 2 3 2 1 3 4 5 6 7 6 6 8 11 12 11 11 12 13 13 13 14 14 15 16 18 18 17 17 17 16 16 16 16 18 20 20 19 19 19 19 19 19 19 19 18 18 17 17 17 17 17 17 17
10 11 10 9 7 6 6 6 6 4 4 5 3 3 3 3 4 3 2 2 1 1 2 2 1 2 1 3 3 1 0 1 2 4 5 3 1 2 2 3 6 8 8 7 9 11 13 14 14 13 13 14 14 15 16 16 17 18 19 19 18 18 18 17 16 16 17 19 20 20 20 20 20 20 20 20 20 20 19 19 18 18 18 18 18 18
8 9 8 8 7 6 4 5 6 5 5 5 4 4 4 5 4 3 2 3 3 2 3 3 3 5 4 3 4 2 0 1 2 2 4 4 1 2 1 0 2 6 8 8 9 11 13 15 15 13 13 14 15 16 17 17 17 18 19 19 19 19 19 18 18 17 17 18 21 22 22 21 21 21 21 21 21 21 20 20 19 19 20 20 19 19
5 6 4 4 5 3 2 5 6 6 6 7 6 5 5 6 5 3 4 4 4 4 4 4 4 5 5 5 6 4 1 1 1 1 3 5 5 2 0 1 2 6 9 10 10 10 12 14 15 14 13 13 14 15 16 17 17 18 19 19 20 21 20 20 20 20 19 19 20 22 23 23 23 23 22 22 23 23 22 21 20 21 21 21 20 20
4 4 2 2 1 2 1 4 4 5 7 7 6 5 5 6 5 4 5 5 5 5 5 4 4 5 6 6 7 7 4 2 2 3 4 5 6 5 3 5 7 8 9 10 9 9 11 13 14 15 14 14 14 15 16 17 18 18 18 19 20 21 22 21 21 21 21 21 20 21 23 24 24 24 24 24 24 24 24 22 22 22 22 21 21 21
2 3 2 3 2 1 2 4 6 7 7 5 4 5 6 6 6 6 5 5 5 6 5 4 4 4 5 6 6 6 7 6 5 5 5 5 5 6 7 8 9 8 7 7 9 10 11 13 14 15 14 13 13 14 15 17 18 18 19 19 20 21 22 22 22 22 23 23 22 21 23 24 25 26 26 25 25 24 24 24 23 23 23 22 22 21
2 3 3 4 4 4 6 8 9 9 8 5 5 6 6 5 4 4 5 6 7 6 5 4 5 5 5 6 6 7 8 9 9 8 8 8 7 7 8 10 10 9 8 9 11 13 14 15 15 14 14 15 14 14 15 16 18 19 20 20 20 21 22 22 22 22 23 24 23 22 23 25 26 27 27 27 26 25 25 24 24 25 25 24 23 22
4 5 7 6 6 8 9 11 11 8 8 8 7 7 6 5 4 4 5 6 8 8 7 5 5 5 6 7 8 9 9 10 10 10 11 10 10 9 9 11 12 11 11 12 14 14 13 14 14 14 15 17 17 16 16 17 18 19 20 21 21 21 22 23 22 22 23 23 22 22 24 25 26 27 28 28 28 27 25 25 25 26 26 25 24 23
7 8 8 8 10 12 13 13 12 9 9 10 10 9 9 8 7 7 6 7 8 6 4 3 4 5 6 8 9 10 11 12 12 12 11 11 11 12 13 13 14 14 14 15 16 15 13 12 13 14 17 18 19 19 18 17 17 19 20 21 22 22 23 24 23 22 22 22 21 22 23 25 26 27 28 28 28 28 27 26 26 27 27 26 26 25
10 9 9 9 12 14 14 14 13 12 12 13 13 12 11 10 9 9 9 8 7 4 2 3 5 7 7 8 10 12 13 13 13 13 13 13 13 14 15 15 15 15 16 16 16 16 16 15 14 15 17 20 22 21 20 18 18 19 20 21 21 22 23 24 24 23 22 22 22 22 23 24 25 27 27 28 28 29 29 27 26 26 27 27 27 26
12 11 10 11 13 13 14 15 15 13 13 14 14 14 13 13 13 13 13 11 8 7 6 6 6 7 9 10 11 13 14 14 14 13 14 14 14 14 14 15 14 15 16 18 18 18 18 17 17 17 19 21 22 20 18 18 19 19 20 20 21 22 22 23 24 23 23 23 23 23 23 23 24 25 27 27 27 28 29 29 28 27 27 27 27 26
14 14 13 14 14 13 14 16 16 15 15 15 15 15 15 16 16 16 16 14 11 10 9 8 7 9 10 11 11 13 13 14 14 14 15 15 15 15 15 14 14 14 14 16 18 19 20 18 18 18 19 20 21 19 17 18 19 19 20 21 24 25 23 22 22 23 23 23 23 23 24 24 23 24 25 27 27 28 29 29 28 27 27 27 27 27
17 16 16 15 15 14 16 17 18 17 16 16 17 17 17 17 16 16 17 16 13 12 10 9 10 11 12 14 14 13 13 13 13 14 16 17 17 16 15 14 14 13 12 12 14 17 20 20 19 19 20 21 20 19 19 19 19 20 21 23 24 23 22 22 23 24 24 24 24 25 25 24 24 23 24 26 27 28 28 28 28 28 28 28 28 27
16 15 16 16 15 15 17 19 19 19 18 17 17 17 18 19 19 17 16 15 13 12 11 10 11 12 13 15 16 16 15 14 12 13 15 18 17 16 15 14 14 13 13 12 13 16 19 20 21 21 21 22 21 20 21 21 21 22 23 24 22 20 22 23 24 25 25 24 24 24 24 24 24 23 24 26 27 28 27 27 27 28 29 29 28 27
12 13 14 14 14 14 16 18 19 19 18 17 16 16 18 19 19 17 16 15 14 12 11 11 11 11 12 14 16 16 15 14 13 13 15 17 16 15 15 15 15 14 13 13 15 17 18 20 22 22 23 22 21 21 22 23 23 23 22 22 21 21 23 24 24 24 25 24 23 23 23 24 24 24 25 26 27 28 27 27 26 27 29 29 29 28
10 11 13 14 13 13 14 15 16 17 17 16 16 15 14 14 14 14 15 15 14 13 12 12 11 11 12 13 15 16 15 15 15 15 15 16 15 14 14 15 14 13 12 13 15 17 18 19 20 21 22 22 21 22 23 23 22 21 21 20 20 20 21 23 23 22 23 23 23 23 22 23 24 25 26 27 28 27 27 27 27 28 29 29 29 29
10 10 11 12 10 10 12 13 14 15 16 16 16 15 14 12 12 14 15 14 13 13 12 13 13 12 12 13 15 15 15 16 16 15 15 15 15 15 15 16 16 15 14 14 14 16 18 18 19 19 20 20 21 21 22 22 22 21 20 20 19 18 18 18 19 21 21 21 20 20 21 23 24 25 26 27 28 27 28 28 28 28 28 28 27 28
9 8 7 7 7 8 9 11 12 13 15 16 16 17 16 13 12 14 15 14 13 14 14 14 14 14 13 14 16 16 16 15 15 15 15 16 16 16 15 16 17 18 18 17 16 16 17 18 19 19 19 19 18 18 19 20 20 19 18 17 16 15 13 13 15 18 19 19 19 20 21 23 25 25 25 25 26 27 28 28 28 29 28 27 26 26
5 4 4 5 7 8 8 9 10 11 14 16 17 16 15 13 13 14 14 13 13 14 14 14 15 15 16 16 17 17 17 17 16 17 18 18 17 18 17 17 17 18 19 19 18 17 17 18 19 19 19 19 18 17 16 17 18 17 16 15 14 13 12 13 14 16 18 19 21 22 22 23 25 26 25 25 26 27 27 27 27 28 28 27 27 27
5 5 6 7 9 9 8 8 8 10 13 15 17 17 16 15 16 17 15 13 14 15 15 15 15 16 17 17 17 18 19 18 17 17 19 19 18 19 19 19 19 19 20 20 19 18 17 17 18 20 20 20 18 16 15 15 17 17 17 16 16 15 15 15 15 17 20 23 24 24 24 24 25 27 27 26 26 25 25 26 26 27 28 28 28 28
7 8 8 8 9 10 10 9 8 9 11 13 16 17 16 16 17 17 16 15 15 15 16 15 15 15 16 16 16 17 18 18 17 17 19 20 20 20 20 20 21 21 22 22 21 20 19 18 17 18 18 19 19 18 17 16 17 18 19 19 19 19 18 17 16 17 20 23 24 25 25 23 23 25 27 27 26 25 26 27 27 28 29 29 29 28
10 10 10 10 11 11 12 11 11 10 11 12 14 15 15 15 16 16 16 15 15 15 16 16 15 15 15 16 16 16 17 17 18 18 19 20 21 21 22 22 22 22 22 23 23 22 21 20 19 18 17 17 18 19 19 19 19 19 20 21 21 21 21 19 18 18 20 22 24 24 26 27 25 24 25 27 27 27 27 28 29 30 30 29 28 28
13 12 11 12 11 11 12 12 12 12 13 13 14 15 15 15 15 15 15 15 15 16 16 16 15 15 15 16 17 17 17 17 18 19 19 21 22 23 23 23 23 23 23 23 24 24 24 23 22 20 19 19 19 18 19 19 20 20 20 21 22 23 22 21 21 21 22 24 25 25 26 29 29 26 25 27 28 28 29 30 30 30 30 30 30 30
12 12 11 11 11 11 11 11 12 13 14 14 15 15 16 16 16 16 16 16 16 16 17 17 16 16 17 17 17 18 18 17 17 18 18 20 21 23 24 24 25 25 25 25 25 26 26 27 26 24 23 23 22 21 20 20 20 20 21 22 22 23 23 22 22 23 23 24 26 25 24 24 26 25 25 27 28 29 29 29 30 30 30 32 33 33
12 12 11 11 12 12 13 13 13 13 13 14 15 15 16 17 17 17 17 17 17 17 17 17 17 17 17 17 17 18 18 19 19 18 18 19 19 21 23 24 26 27 28 28 28 28 28 29 29 28 27 26 25 24 23 22 22 23 23 23 24 24 24 24 24 24 25 24 24 24 23 23 23 23 25 27 28 29 29 29 29 30 31 32 33 33
15 15 15 15 15 15 15 15 15 15 15 15 16 16 16 16 17 17 18 18 18 17 18 18 18 18 18 18 18 18 18 19 19 20 20 20 20 20 21 22 24 26 28 29 29 30 30 30 31 31 31 30 28 27 26 26 25 25 25 26 26 26 26 26 26 26 27 26 25 24 24 25 25 25 25 26 27 28 29 29 28 30 31 31 31 32
17 17 18 17 17 16 16 16 16 17 17 17 18 18 17 17 17 17 18 18 18 18 18 19 19 20 21 21 21 20 20 20 20 20 21 21 21 21 22 22 22 23 24 26 28 29 31 31 32 33 33 33 32 30 29 29 28 28 29 29 30 30 29 28 29 28 29 28 28 27 26 27 27 27 27 26 27 28 30 30 30 30 30 30 29 30
16 16 17 17 17 17 17 17 17 18 17 17 18 18 18 18 17 17 17 18 18 18 18 18 18 19 20 21 22 22 22 22 22 22 22 22 22 23 23 23 24 23 23 23 24 25 27 30 31 33 34 34 34 33 32 31 30 30 30 31 33 33 32 31 31 30 30 31 31 30 29 29 30 30 30 29 29 29 30 31 31 31 31 31 30 30
15 15 16 17 17 18 17 17 17 17 17 17 17 18 19 19 19 19 18 18 19 20 20 20 20 20 20 21 22 23 23 24 24 24 24 24 24 24 25 25 25 25 25 24 23 23 23 25 26 28 30 31 32 33 34 33 32 31 30 30 31 32 33 34 33 32 32 31 31 32 32 32 33 34 34 33 33 33 33 33 33 33 34 34 33 32
15 14 15 15 16 16 15 15 15 16 16 16 17 17 18 18 19 18 18 18 18 19 20 21 22 22 21 21 22 22 23 23 23 24 24 25 25 25 26 26 26 26 27 27 27 26 26 25 25 26 27 27 28 30 31 31 32 31 31 30 30 30 31 32 33 32 32 32 32 33 33 34 34 34 35 36 36 36 35 34 34 35 36 35 35 35
14 14 15 15 14 14 13 13 13 14 14 14 15 15 15 16 16 16 17 17 17 17 18 19 19 20 20 20 20 21 21 22 22 23 23 24 24 25 26 26 26 26 27 27 28 29 29 29 29 29 29 30 30 30 30 31 31 31 31 31 31 31 32 32 32 32 32 33 33 33 33 33 32 31 32 35 36 36 35 35 36 36 37 37 37 37
Wind_Direction
172 174 176 181 186 190 194 198 196 192 191 195 199 198 200 205 211 222 230 224 216 216 223 229 229 229 233 238 241 244 244 242 243 245 245 245 249 256 264 269 274 278 278 272 265 262 258 253 250 250 252 251 246 237 230 231 239 251 262 271 267 263 255 245 239 230 224 227 234 244 258 272 291 307 313 315 315 317 317 314 311 305 291 252 216 201
167 173 180 182 187 194 198 198 197 194 192 191 192 192 195 202 209 218 225 225 221 218 222 230 235 232 230 235 241 244 244 241 240 244 246 249 255 262 268 273 276 276 271 263 256 255 252 247 245 246 249 249 241 233 229 233 241 251 263 271 270 266 255 242 232 225 225 229 235 245 259 275 294 305 308 313 315 316 315 312 309 301 278 216 187 179
166 173 180 183 190 199 198 196 195 195 199 205 201 193 192 200 211 218 220 220 224 227 226 231 237 233 226 231 239 241 241 239 239 246 252 257 262 265 268 273 273 269 264 258 252 249 247 245 245 246 248 244 234 230 231 235 242 250 259 264 265 264 253 241 230 225 227 231 238 248 262 278 293 301 304 311 315 316 314 310 305 295 242 177 166 162
167 173 180 187 196 197 191 191 194 198 211 231 232 216 206 207 212 217 220 219 224 232 233 236 237 227 220 227 236 241 242 241 244 252 259 261 263 266 270 271 268 264 260 256 252 249 248 246 246 247 247 238 227 228 232 239 246 252 259 262 262 259 249 240 232 230 232 235 241 252 266 281 291 296 300 310 316 315 312 305 298 275 171 154 154 154
170 178 186 193 197 191 187 191 196 203 214 222 222 218 217 220 217 215 219 220 224 229 232 236 234 222 218 224 233 243 247 250 255 259 260 261 261 262 267 268 265 263 259 255 252 250 249 247 248 249 244 230 222 226 234 241 248 255 262 263 258 254 247 239 235 235 236 238 244 255 268 279 287 292 298 308 313 313 309 295 276 194 150 146 150 153
171 174 176 178 180 182 185 191 199 206 207 202 201 207 213 218 213 210 216 220 223 227 225 227 224 219 221 221 227 242 252 259 263 267 268 265 263 258 258 260 262 263 260 254 249 247 247 246 245 244 234 221 218 226 234 241 249 255 261 261 257 253 245 239 238 240 240 241 246 255 266 275 282 288 294 303 309 310 301 274 229 163 148 148 153 158
153 151 156 162 168 172 177 185 198 200 194 190 183 181 190 197 199 203 214 218 218 220 215 217 220 222 227 224 226 237 248 257 262 268 272 270 267 262 256 256 258 260 257 251 245 243 244 243 241 235 224 214 217 226 234 242 251 258 261 259 258 253 245 242 241 242 243 244 248 254 261 270 277 282 287 295 305 305 284 242 200 166 157 156 161 169
138 141 145 153 161 163 165 177 190 183 178 178 156 136 142 174 194 196 206 211 205 203 203 210 215 215 225 226 226 235 243 251 253 256 263 266 266 264 258 254 253 253 250 246 243 242 243 243 240 231 218 211 218 229 236 244 253 261 264 261 258 252 246 246 246 245 246 247 247 251 256 264 271 277 280 287 298 294 260 224 198 179 172 170 174 178
128 132 136 143 150 148 149 165 178 165 157 156 157 154 137 129 173 184 205 204 186 176 181 194 196 193 217 231 230 235 240 244 248 251 259 265 265 258 249 244 244 247 246 242 242 241 243 243 237 226 216 214 223 233 242 248 252 258 261 258 254 251 247 249 250 248 249 249 246 245 250 259 267 269 272 278 287 279 248 220 204 194 190 188 187 185
110 116 126 133 138 136 138 156 164 151 143 147 165 171 146 117 104 68 49 170 168 164 168 181 181 182 216 240 237 230 233 242 251 260 269 273 271 255 238 234 238 242 244 243 242 240 240 240 232 220 215 218 227 238 248 253 256 257 258 256 252 250 248 249 251 250 249 249 244 242 245 254 260 262 262 266 274 269 243 222 211 206 203 201 198 191
112 118 124 128 134 136 141 158 164 151 138 136 143 131 130 136 138 83 78 111 148 167 169 171 171 182 211 227 231 230 233 243 253 260 264 268 265 242 224 225 233 240 244 245 244 240 239 237 224 214 215 222 230 241 251 257 261 263 264 260 253 251 249 247 248 250 250 247 241 239 243 249 255 256 254 254 260 259 241 225 218 214 209 207 205 198
121 126 127 126 134 140 146 161 165 154 145 122 89 85 94 94 66 89 103 115 140 155 155 164 164 173 199 206 215 221 223 240 253 252 251 253 247 231 219 220 230 240 243 242 240 236 234 229 217 212 218 226 235 246 254 261 265 268 267 264 257 252 250 248 246 247 249 247 240 238 241 246 251 252 250 247 248 250 240 228 224 221 212 209 211 205
119 117 114 112 122 137 147 154 144 126 120 98 67 61 49 20 26 89 115 128 136 133 136 156 150 149 166 172 187 208 224 255 267 248 236 235 239 234 223 216 223 235 240 236 234 231 229 225 219 218 222 229 240 250 257 262 265 265 264 262 260 255 251 248 247 246 247 246 241 238 241 245 247 248 247 244 239 242 240 231 227 225 216 210 213 212
119 105 103 115 124 132 139 141 126 103 101 83 58 60 35 359 32 119 115 118 118 119 134 145 131 125 143 162 183 204 226 249 240 208 186 178 213 219 208 205 210 222 232 231 229 228 228 227 226 227 230 236 244 253 259 261 262 262 261 260 260 258 253 250 247 244 245 244 241 238 240 244 246 246 245 242 237 235 238 235 230 228 221 213 214 216
127 119 120 126 127 132 132 130 118 97 98 90 64 59 52 63 120 129 118 113 114 123 138 131 119 128 181 230 210 182 191 188 158 158 178 164 169 180 176 184 196 204 214 223 226 227 228 229 232 233 236 241 247 252 257 260 261 262 261 259 258 258 256 252 248 243 242 242 241 239 240 243 245 246 245 242 237 232 234 236 233 230 225 218 217 219
128 127 128 122 121 133 130 120 108 96 98 105 96 86 91 106 117 117 112 109 116 127 127 118 119 133 148 143 110 145 175 195 174 172 190 170 157 175 183 184 191 196 201 213 224 226 224 224 230 235 239 243 246 250 255 259 262 263 263 259 255 255 255 254 251 246 242 241 241 239 240 243 245 245 244 242 239 233 232 235 235 233 230 224 222 222
128 125 126 121 125 136 125 116 117 116 112 110 112 111 107 115 114 98 103 110 119 125 112 111 118 110 108 86 68 100 134 161 182 173 182 197 192 205 212 201 194 194 196 206 221 227 226 222 226 233 238 242 246 251 256 260 263 265 266 263 258 254 254 253 251 248 243 240 241 240 240 243 246 246 244 243 241 236 232 234 235 236 234 231 228 227
125 120 118 119 129 134 130 135 140 132 124 110 106 105 97 116 131 120 141 156 136 138 132 113 110 101 101 96 67 80 111 103 117 163 194 226 221 224 237 233 215 201 193 198 215 229 230 225 227 233 237 241 246 251 257 262 264 266 268 269 267 262 258 255 250 248 245 240 238 239 240 242 245 246 244 243 242 239 235 234 235 236 236 235 233 232
127 121 115 116 126 130 139 152 149 145 134 111 103 114 108 121 147 144 169 154 113 121 132 103 104 104 102 96 74 78 92 80 74 152 204 231 233 235 244 246 241 228 206 197 211 229 233 228 229 236 239 242 247 252 257 260 262 265 267 269 269 266 262 258 252 247 246 243 240 238 238 241 245 246 244 243 242 241 238 235 235 237 237 236 236 235
135 126 121 123 131 135 141 150 152 164 148 113 121 172 154 167 189 161 173 166 121 114 290 27 93 118 110 98 92 91 97 124 283 55 106 206 244 243 239 246 250 252 243 218 219 233 239 236 232 237 242 244 247 252 256 259 262 265 268 268 267 267 266 262 256 249 245 244 244 241 239 241 245 247 246 244 243 242 242 239 237 238 238 237 237 236
135 124 130 133 141 152 150 149 156 164 156 143 168 193 178 191 201 172 176 205 156 163 263 353 98 127 118 109 126 114 112 203 285 4 47 64 235 230 232 238 231 225 225 223 228 237 242 240 233 232 239 244 248 252 254 258 263 266 267 266 267 269 268 266 262 254 246 243 244 244 242 241 245 249 248 245 244 244 244 242 240 240 240 240 238 237
142 133 140 136 144 166 155 151 155 148 152 161 176 206 185 183 211 209 197 216 207 154 226 239 237 247 221 148 174 190 146 258 310 343 345 356 111 174 204 227 222 215 211 209 219 232 241 243 240 236 240 247 252 254 254 256 260 263 265 266 268 269 269 268 266 261 253 246 244 245 243 242 244 248 249 246 244 244 244 244 243 242 242 242 241 239
154 142 143 140 155 169 157 162 161 151 172 191 201 203 175 171 199 224 229 216 214 225 238 243 253 264 268 235 218 218 276 337 11 13 338 325 286 183 154 32 214 212 216 213 212 225 238 243 245 241 240 246 252 255 256 257 258 261 264 267 269 269 269 269 267 264 259 251 246 245 245 244 243 245 248 247 244 243 243 243 243 243 242 243 242 242
142 122 129 148 152 135 157 198 179 162 182 201 208 205 192 197 208 226 255 255 241 232 230 235 250 270 286 289 280 270 262 39 37 6 331 309 285 254 200 326 268 228 224 216 210 222 236 244 247 243 237 240 247 253 256 256 257 259 263 266 268 269 269 269 268 266 263 256 250 247 246 246 245 245 247 247 246 244 243 242 242 243 243 242 242 243
115 103 134 201 181 40 326 233 209 192 199 203 206 210 212 221 229 234 247 265 272 254 243 247 263 282 290 285 281 285 293 303 292 297 303 291 286 287 282 281 275 259 241 224 221 233 239 243 248 247 243 242 246 251 254 256 257 259 261 263 265 268 269 269 269 269 267 263 258 253 250 248 246 246 247 248 248 246 244 243 242 243 244 243 242 242
130 117 156 183 197 285 271 248 242 233 230 225 212 214 225 233 238 239 245 261 266 260 263 280 292 301 295 272 269 294 315 318 311 305 296 288 292 291 284 284 287 289 278 256 254 261 256 250 248 249 251 252 252 254 254 254 256 257 260 261 262 265 267 268 268 269 270 268 265 260 256 252 249 247 248 249 250 248 246 244 243 243 245 244 244 244
185 161 186 184 201 238 239 241 243 236 232 232 216 213 226 240 248 260 268 263 258 258 269 290 300 304 301 292 301 323 326 319 317 315 313 314 310 297 292 297 301 303 294 277 272 270 262 253 248 249 256 256 254 254 254 254 255 255 257 259 259 261 263 265 267 268 270 271 270 268 264 260 256 252 249 249 250 250 248 246 244 244 245 245 245 245
210 201 206 209 225 240 242 247 252 243 226 227 235 237 241 250 255 259 261 261 264 264 264 280 302 305 303 305 314 319 311 303 303 304 309 315 311 305 304 304 305 304 298 292 288 282 270 258 253 260 270 268 262 259 257 255 254 254 255 256 257 259 261 264 266 267 269 271 273 272 269 267 264 260 255 252 251 252 250 248 246 245 245 246 246 246
216 213 212 215 230 241 248 255 258 254 246 248 258 261 261 261 254 248 254 265 269 263 251 272 298 300 300 298 298 297 294 294 297 299 303 305 301 303 304 302 302 301 296 293 289 284 279 273 267 271 275 271 267 265 262 260 259 258 259 259 258 258 260 263 265 267 269 271 272 273 272 270 268 265 261 256 252 252 251 250 249 247 247 247 247 247
231 229 222 222 232 238 244 251 254 256 259 263 265 263 263 265 257 252 256 262 270 280 275 272 279 282 284 285 288 292 294 297 302 306 308 306 303 304 305 304 302 299 294 290 285 281 280 281 280 279 276 274 273 272 268 267 267 264 264 266 265 262 262 265 267 267 268 270 271 272 272 271 268 265 263 259 255 252 251 251 251 249 248 248 248 249
243 241 234 232 238 239 241 248 253 256 257 261 264 263 261 258 253 252 254 258 267 276 272 266 271 277 277 282 290 294 297 301 306 313 315 312 308 306 306 305 304 304 302 299 296 293 290 288 286 284 281 279 282 285 282 278 278 275 273 276 276 269 264 264 266 265 265 267 270 271 271 271 268 264 262 259 257 254 252 251 250 250 249 248 248 249
252 251 245 242 243 244 246 251 255 255 255 257 260 260 256 253 250 249 252 256 258 258 263 272 281 283 285 289 290 292 296 303 311 317 315 309 308 311 313 314 313 311 310 308 305 301 295 287 280 279 280 280 285 295 295 289 290 290 288 286 282 273 268 269 268 262 259 262 266 270 271 270 267 264 261 259 257 255 253 251 250 250 250 249 249 248
253 253 251 249 247 245 247 251 254 253 252 254 256 255 252 249 247 247 249 252 255 259 271 282 287 290 293 293 291 290 294 301 311 315 308 303 307 314 317 317 315 312 308 304 300 295 291 287 285 287 290 291 294 298 294 288 289 290 290 290 285 275 268 271 272 264 258 259 263 268 271 270 267 263 259 257 256 256 255 253 251 250 251 251 251 250
251 250 248 246 243 241 241 245 250 251 251 253 255 259 259 253 245 242 246 250 256 266 275 280 281 286 289 289 290 292 295 301 308 305 298 299 307 313 314 314 315 315 311 304 298 294 293 294 297 298 298 299 301 301 297 294 293 291 289 291 288 275 263 264 267 265 260 259 262 266 269 269 267 263 259 255 253 254 254 253 252 251 252 253 254 253
241 239 237 236 232 232 235 240 245 249 250 250 252 259 264 255 243 237 241 247 251 258 265 271 273 276 279 280 284 289 293 297 297 290 289 296 304 308 310 313 316 317 314 308 302 299 298 298 297 297 298 300 302 301 297 296 296 295 294 294 290 281 272 268 269 269 264 259 260 262 264 266 266 262 258 255 253 252 252 252 251 251 252 254 255 256
244 233 232 232 228 227 232 236 240 245 249 252 252 255 258 252 243 242 244 247 252 258 262 264 264 266 271 274 279 286 290 291 288 285 289 295 299 302 306 310 312 311 308 305 301 299 298 296 295 295 296 297 297 295 294 294 293 293 296 298 296 291 283 273 268 269 266 259 258 260 261 264 265 263 260 258 255 253 252 252 251 250 251 253 255 256
256 237 225 228 233 235 235 233 236 243 251 257 259 256 253 251 251 252 250 248 253 260 263 263 261 264 271 277 282 287 288 286 283 285 289 292 294 299 305 307 308 308 306 304 302 299 297 296 296 295 295 295 294 294 293 294 294 292 294 299 300 298 289 273 262 265 267 259 254 255 256 257 260 260 260 259 258 255 253 252 252 251 252 252 254 257
263 252 232 236 251 255 249 244 243 248 254 258 258 255 256 261 262 257 253 252 256 260 263 264 267 270 275 280 285 288 286 284 285 288 290 290 292 297 301 302 304 306 306 305 303 301 300 300 299 298 296 294 293 292 292 295 297 296 296 300 302 298 285 267 261 266 268 260 253 253 254 255 256 258 260 260 259 256 253 253 253 254 255 255 256 258
258 262 258 261 262 260 259 255 253 252 254 258 260 258 261 268 267 263 263 264 264 265 266 268 273 277 279 280 284 286 286 286 288 288 288 288 290 292 294 294 296 298 300 301 301 301 303 304 303 300 294 290 291 292 293 297 302 302 300 301 303 296 278 266 265 267 266 261 256 255 256 255 252 251 252 254 255 254 254 256 257 257 258 258 258 258
247 249 253 257 260 263 265 260 252 249 251 257 263 265 267 268 266 267 271 272 270 271 273 274 276 278 280 282 283 284 286 288 287 283 281 282 283 284 287 289 290 292 293 294 294 294 296 300 303 303 298 294 296 296 294 297 303 305 303 300 297 293 287 282 280 275 272 271 268 264 264 265 262 256 250 250 254 256 257 260 263 265 265 264 262 261
263 259 255 255 259 263 267 267 263 258 255 259 265 268 270 271 271 273 276 275 275 277 279 280 280 279 281 282 282 282 283 285 284 279 277 279 280 281 284 285 286 288 291 292 292 292 292 294 298 300 298 295 296 296 294 294 296 297 297 295 293 293 293 290 286 281 278 280 281 276 269 267 267 262 255 254 257 257 256 258 262 265 267 268 268 269
252 253 254 257 257 255 256 260 263 263 260 260 264 267 269 271 274 277 278 278 278 278 277 278 280 280 280 280 280 281 282 282 283 282 280 280 280 282 282 281 281 282 284 287 289 289 290 292 292 291 290 290 291 292 291 290 288 287 286 287 288 291 293 291 288 284 281 283 286 282 272 266 263 259 255 256 258 256 252 250 253 257 262 266 271 272
249 252 255 256 256 255 256 258 260 261 261 260 262 265 269 272 273 274 275 276 276 275 277 279 280 279 279 280 281 282 283 282 283 282 281 279 279 279 279 278 277 278 279 282 284 285 287 288 287 284 282 283 284 284 284 285 285 285 285 285 285 287 290 290 289 287 286 288 289 287 280 274 270 265 262 263 265 263 257 252 254 260 265 268 270 272
257 258 257 257 259 261 263 264 264 265 265 265 265 266 268 271 272 273 274 275 276 277 279 281 281 280 280 279 279 279 280 280 281 281 282 281 280 278 277 276 277 278 279 280 282 285 286 287 286 283 280 280 282 282 282 282 282 283 285 286 285 286 288 289 286 284 286 289 290 289 285 280 275 271 270 271 271 270 266 261 260 265 268 269 269 269
262 264 264 263 263 264 267 269 269 268 269 270 271 272 272 273 273 275 276 277 278 279 280 282 283 283 283 283 282 281 280 280 281 282 283 283 282 281 279 277 277 277 278 279 280 281 283 284 285 284 282 282 282 282 282 281 279 278 279 281 282 282 283 284 284 283 284 287 288 288 287 285 281 276 275 275 274 273 272 269 265 265 268 269 269 269
264 265 265 265 264 266 268 269 269 268 269 272 275 277 277 276 276 276 277 279 280 280 281 282 284 286 286 287 286 285 284 284 284 285 286 286 287 286 285 283 281 279 278 279 280 281 281 281 282 284 284 284 284 284 284 283 282 281 280 280 280 281 281 282 282 282 283 285 286 286 286 287 286 281 278 278 278 277 277 277 274 271 269 268 267 268
264 264 265 266 267 267 267 268 269 270 272 274 276 277 277 276 275 275 277 280 280 279 279 279 280 282 283 283 283 283 283 283 284 285 286 287 288 288 288 289 288 286 284 282 281 281 281 281 281 282 283 284 285 285 284 284 283 282 282 282 282 282 282 282 284 284 284 285 285 285 286 287 287 284 280 279 279 280 281 283 283 280 275 271 270 271
265 265 266 267 268 268 268 269 271 271 272 274 275 276 276 276 275 275 278 280 282 282 281 280 279 280 280 282 283 284 284 284 285 284 285 285 285 286 287 287 288 288 288 287 285 283 282 281 281 281 281 282 283 284 285 285 284 282 281 280 280 281 281 282 282 282 283 284 285 286 286 286 286 284 281 279 278 278 279 281 281 279 277 276 276 276
269 268 267 267 269 270 269 270 271 272 273 274 275 276 277 277 278 279 281 282 283 284 285 285 285 284 283 283 284 285 285 285 285 286 286 286 286 286 286 286 286 286 286 287 287 286 284 283 282 282 281 281 281 281 283 284 285 284 282 280 279 278 279 281 281 280 279 280 281 283 284 284 283 281 279 278 278 278 279 279 278 276 275 275 276 276
268 267 266 267 268 269 271 273 274 274 275 275 275 277 279 281 284 285 287 287 287 287 287 289 289 290 290 289 288 288 288 288 287 287 288 288 288 288 287 287 286 286 286 286 286 285 285 284 282 282 282 282 282 282 282 284 285 285 285 284 282 280 280 281 281 282 281 280 280 281 281 282 280 278 276 275 276 276 276 276 274 274 273 274 275 277
265 265 267 269 272 275 277 278 279 279 280 281 282 283 286 288 291 293 295 296 294 292 291 292 293 294 294 294 294 293 292 292 293 292 292 291 291 291 291 291 290 289 288 287 286 286 285 284 282 281 281 281 282 282 282 283 284 285 285 285 285 284 283 283 283 283 283 282 282 282 282 282 281 278 277 276 275 273 273 273 273 273 273 274 276 277
Height
5740 5743 5746 5749 5752 5755 5758 5761 5765 5768 5771 5774 5777 5779 5781 5784 5785 5785 5785 5788 5789 5790 5791 5792 5794 5796 5797 5798 5799 5800 5801 5802 5802 5802 5802 5802 5803 5804 5804 5804 5805 5806 5807 5807 5807 5807 5808 5808 5808 5808 5808 5809 5809 5809 5810 5810 5810 5809 5809 5809 5809 5809 5808 5808 5808 5808 5808 5808 5809 5809 5809 5809 5808 5808 5807 5806 5805 5805 5804 5803 5803 5802 5801 5801 5801 5800
5743 5746 5749 5752 5755 5758 5760 5762 5765 5768 5772 5775 5776 5778 5780 5782 5783 5783 5783 5786 5787 5787 5788 5790 5792 5794 5794 5795 5797 5798 5799 5799 5800 5799 5800 5801 5801 5803 5802 5802 5804 5804 5805 5805 5805 5806 5806 5806 5807 5807 5807 5808 5808 5809 5809 5809 5809 5808 5808 5808 5808 5807 5807 5807 5807 5807 5807 5807 5808 5808 5808 5808 5807 5807 5806 5805 5804 5804 5803 5803 5802 5801 5801 5801 5800 5800
5745 5748 5751 5754 5756 5759 5761 5764 5767 5770 5772 5774 5775 5777 5779 5780 5781 5781 5782 5784 5786 5787 5788 5789 5790 5792 5793 5793 5795 5796 5797 5797 5798 5798 5798 5799 5800 5801 5801 5801 5802 5803 5803 5803 5804 5804 5805 5805 5806 5806 5807 5807 5807 5808 5808 5808 5808 5808 5807 5807 5807 5806 5806 5806 5806 5806 5806 5806 5807 5807 5807 5806 5806 5806 5805 5804 5803 5803 5802 5802 5801 5801 5801 5800 5800 5800
5748 5751 5753 5755 5757 5759 5762 5765 5768 5771 5772 5773 5774 5776 5777 5778 5779 5780 5781 5783 5786 5787 5788 5788 5789 5790 5791 5792 5794 5795 5795 5795 5796 5797 5797 5798 5799 5799 5800 5800 5800 5801 5801 5802 5802 5802 5803 5804 5805 5805 5805 5806 5806 5806 5807 5807 5807 5807 5806 5806 5806 5805 5805 5805 5805 5805 5805 5805 5806 5806 5805 5805 5805 5805 5804 5803 5803 5802 5802 5801 5801 5801 5800 5800 5800 5800
5751 5753 5754 5756 5758 5760 5763 5766 5769 5771 5772 5773 5774 5775 5776 5777 5778 5780 5781 5783 5785 5786 5786 5787 5787 5789 5790 5791 5793 5793 5793 5794 5795 5795 5796 5796 5797 5798 5798 5798 5798 5799 5800 5800 5800 5801 5802 5803 5803 5804 5804 5805 5805 5805 5806 5806 5806 5805 5805 5805 5805 5804 5804 5804 5804 5804 5804 5804 5804 5804 5804 5804 5804 5804 5803 5802 5802 5801 5801 5801 5800 5800 5800 5800 5800 5801
5752 5753 5755 5756 5758 5760 5764 5767 5769 5770 5772 5773 5774 5775 5775 5776 5778 5780 5781 5782 5783 5783 5784 5784 5786 5788 5789 5790 5792 5792 5792 5793 5793 5793 5794 5794 5795 5796 5797 5797 5797 5798 5798 5799 5799 5800 5800 5801 5802 5803 5803 5804 5804 5804 5804 5804 5804 5804 5804 5804 5804 5803 5803 5803 5803 5804 5804 5803 5803 5803 5803 5803 5803 5803 5802 5802 5801 5801 5801 5800 5800 5800 5800 5800 5801 5801
5753 5754 5756 5758 5760 5762 5765 5767 5768 5769 5771 5772 5773 5774 5775 5776 5777 5778 5779 5781 5782 5782 5783 5784 5786 5788 5789 5790 5791 5791 5791 5791 5791 5791 5792 5792 5793 5794 5795 5795 5796 5796 5797 5797 5798 5798 5799 5800 5801 5801 5802 5803 5803 5803 5803 5803 5803 5803 5803 5803 5803 5802 5802 5802 5803 5803 5803 5802 5802 5802 5802 5802 5802 5802 5801 5801 5800 5800 5800 5800 5800 5800 5800 5801 5801 5801
5753 5755 5757 5759 5761 5764 5766 5767 5768 5768 5770 5772 5773 5773 5774 5775 5777 5778 5779 5780 5781 5782 5783 5785 5786 5787 5788 5789 5789 5789 5789 5790 5790 5790 5790 5790 5791 5792 5793 5794 5794 5795 5796 5796 5797 5797 5797 5798 5799 5800 5801 5802 5802 5802 5802 5802 5802 5802 5802 5802 5802 5802 5801 5801 5802 5802 5802 5801 5801 5800 5801 5801 5801 5801 5800 5800 5800 5800 5799 5800 5800 5800 5800 5801 5801 5801
5754 5756 5758 5760 5762 5764 5765 5766 5767 5768 5770 5772 5773 5773 5774 5775 5777 5778 5778 5780 5781 5782 5783 5784 5785 5786 5786 5786 5787 5788 5788 5789 5788 5788 5788 5788 5789 5791 5792 5792 5793 5793 5794 5795 5795 5796 5796 5796 5797 5798 5799 5801 5801 5801 5801 5801 5801 5801 5801 5801 5801 5801 5801 5801 5800 5800 5800 5800 5800 5799 5799 5799 5799 5799 5799 5799 5799 5799 5799 5799 5799 5799 5800 5800 5801 5801
5756 5757 5759 5761 5762 5763 5764 5766 5767 5769 5771 5772 5773 5774 5775 5776 5776 5777 5777 5778 5781 5782 5783 5783 5784 5784 5784 5784 5785 5786 5786 5787 5787 5786 5786 5786 5788 5789 5790 5790 5791 5792 5793 5794 5794 5794 5794 5795 5796 5797 5798 5799 5799 5799 5799 5799 5800 5799 5799 5799 5799 5799 5799 5799 5799 5799 5799 5799 5798 5798 5798 5798 5798 5798 5798 5798 5798 5798 5798 5798 5798 5799 5799 5800 5800 5800
5758 5759 5761 5762 5762 5763 5765 5767 5768 5771 5772 5772 5773 5774 5776 5777 5777 5777 5778 5778 5780 5782 5782 5783 5783 5784 5784 5784 5784 5784 5785 5785 5785 5785 5785 5785 5786 5787 5788 5789 5789 5790 5791 5792 5792 5793 5793 5794 5795 5796 5796 5797 5797 5798 5798 5798 5798 5798 5798 5798 5798 5797 5797 5798 5798 5798 5797 5797 5797 5797 5797 5797 5797 5797 5797 5797 5797 5797 5797 5798 5798 5798 5798 5799 5799 5800
5761 5762 5763 5764 5764 5765 5766 5768 5770 5772 5773 5773 5774 5774 5776 5777 5777 5778 5778 5779 5780 5781 5782 5783 5783 5783 5783 5783 5783 5783 5784 5784 5785 5784 5784 5784 5785 5786 5787 5787 5788 5789 5789 5790 5791 5791 5792 5792 5793 5794 5795 5795 5796 5796 5796 5797 5796 5796 5796 5796 5796 5796 5796 5796 5796 5796 5796 5796 5796 5796 5796 5796 5795 5796 5796 5796 5796 5796 5796 5797 5797 5797 5797 5798 5798 5799
5763 5764 5764 5765 5766 5767 5767 5768 5771 5773 5773 5773 5773 5774 5774 5776 5777 5778 5779 5780 5781 5781 5782 5782 5782 5782 5782 5782 5782 5783 5784 5784 5784 5784 5784 5783 5784 5784 5785 5786 5787 5788 5788 5789 5790 5790 5791 5791 5792 5793 5794 5794 5794 5794 5795 5795 5795 5795 5794 5794 5794 5794 5794 5794 5794 5794 5794 5794 5794 5794 5794 5794 5794 5794 5795 5794 5794 5795 5795 5796 5796 5796 5796 5796 5797 5797
5764 5765 5765 5766 5768 5768 5769 5770 5771 5772 5773 5773 5773 5774 5775 5776 5777 5779 5779 5780 5780 5781 5781 5782 5781 5781 5781 5781 5782 5782 5783 5783 5783 5783 5783 5783 5783 5784 5784 5785 5786 5787 5787 5788 5789 5789 5789 5790 5791 5792 5793 5793 5793 5793 5793 5793 5793 5793 5793 5793 5792 5792 5792 5792 5792 5792 5792 5793 5793 5793 5793 5793 5793 5793 5793 5793 5793 5793 5793 5794 5795 5795 5795 5795 5796 5796
5765 5766 5766 5767 5768 5769 5770 5771 5772 5772 5773 5773 5774 5775 5776 5777 5778 5779 5780 5780 5780 5781 5781 5781 5781 5780 5781 5781 5781 5781 5782 5782 5782 5782 5782 5783 5783 5783 5784 5785 5786 5786 5786 5787 5787 5788 5788 5789 5790 5791 5791 5792 5792 5792 5791 5791 5791 5791 5791 5791 5791 5790 5790 5790 5790 5791 5791 5791 5791 5791 5791 5791 5791 5792 5792 5792 5792 5792 5792 5793 5793 5793 5794 5794 5794 5795
5765 5766 5767 5768 5769 5769 5770 5771 5772 5773 5774 5774 5775 5776 5777 5778 5778 5779 5779 5780 5781 5781 5781 5781 5781 5781 5781 5781 5781 5781 5781 5781 5781 5781 5782 5782 5782 5783 5783 5784 5785 5785 5785 5785 5786 5786 5787 5788 5789 5790 5790 5790 5790 5790 5790 5790 5790 5789 5789 5789 5789 5789 5789 5788 5788 5789 5789 5789 5790 5790 5790 5790 5790 5790 5791 5791 5790 5790 5790 5791 5791 5792 5792 5793 5793 5793
5766 5767 5767 5768 5769 5770 5770 5771 5773 5774 5774 5775 5776 5777 5777 5778 5779 5779 5779 5780 5781 5781 5781 5781 5781 5782 5782 5782 5781 5781 5781 5781 5781 5781 5782 5782 5782 5783 5783 5783 5784 5784 5784 5784 5785 5785 5786 5787 5788 5788 5788 5789 5789 5789 5789 5789 5788 5788 5788 5788 5788 5788 5787 5787 5787 5787 5787 5788 5788 5788 5788 5789 5789 5789 5789 5789 5789 5789 5789 5789 5790 5790 5791 5791 5791 5792
5767 5768 5768 5769 5770 5771 5772 5773 5774 5774 5775 5776 5776 5777 5778 5778 5779 5780 5780 5781 5781 5781 5781 5781 5781 5782 5782 5782 5781 5781 5781 5781 5781 5781 5782 5782 5782 5783 5783 5784 5784 5784 5784 5784 5784 5785 5785 5786 5787 5787 5787 5788 5788 5788 5788 5787 5787 5786 5786 5786 5786 5786 5786 5785 5785 5784 5785 5785 5786 5786 5786 5787 5787 5788 5788 5788 5788 5788 5788 5788 5788 5788 5789 5789 5790 5790
5768 5769 5769 5770 5770 5772 5773 5775 5775 5775 5775 5776 5777 5777 5778 5779 5779 5780 5780 5780 5781 5781 5781 5780 5781 5781 5782 5782 5782 5782 5782 5781 5781 5782 5782 5782 5782 5783 5783 5784 5784 5785 5785 5785 5785 5784 5784 5785 5785 5786 5786 5787 5787 5786 5786 5786 5786 5785 5784 5784 5784 5784 5783 5783 5783 5782 5782 5783 5783 5784 5784 5785 5785 5786 5786 5786 5787 5787 5787 5787 5787 5787 5787 5787 5788 5788
5768 5769 5770 5771 5771 5773 5774 5775 5776 5775 5775 5776 5777 5777 5778 5779 5779 5780 5780 5780 5780 5780 5780 5780 5780 5780 5781 5781 5781 5781 5781 5781 5781 5782 5783 5783 5782 5783 5783 5784 5784 5785 5786 5786 5785 5784 5783 5784 5784 5785 5785 5785 5785 5785 5785 5785 5784 5783 5783 5782 5782 5781 5781 5781 5781 5781 5781 5781 5781 5782 5782 5783 5783 5784 5784 5785 5785 5785 5785 5785 5786 5786 5786 5786 5786 5786
5767 5768 5771 5771 5772 5773 5774 5775 5775 5775 5776 5776 5777 5777 5777 5778 5779 5779 5780 5779 5779 5780 5779 5779 5779 5779 5780 5781 5781 5780 5780 5780 5781 5781 5782 5783 5782 5782 5783 5782 5782 5782 5784 5785 5785 5785 5784 5783 5783 5783 5783 5784 5784 5784 5783 5783 5783 5782 5781 5781 5780 5780 5779 5779 5779 5779 5779 5779 5779 5779 5780 5780 5781 5782 5782 5783 5783 5783 5784 5784 5784 5784 5784 5784 5784 5784
5768 5769 5771 5771 5772 5773 5773 5774 5774 5775 5775 5776 5776 5777 5777 5777 5778 5778 5779 5778 5779 5779 5779 5779 5779 5778 5779 5780 5780 5779 5780 5780 5780 5780 5781 5781 5781 5781 5781 5781 5781 5781 5782 5783 5783 5784 5783 5782 5782 5782 5782 5782 5781 5781 5781 5781 5781 5780 5780 5779 5779 5778 5778 5777 5777 5778 5778 5778 5777 5777 5777 5778 5779 5779 5780 5781 5781 5781 5782 5782 5782 5782 5783 5783 5783 5783
5769 5770 5772 5772 5773 5773 5773 5773 5774 5774 5774 5775 5776 5776 5776 5776 5777 5777 5777 5778 5778 5778 5778 5778 5777 5777 5777 5778 5778 5779 5779 5780 5780 5780 5780 5780 5779 5779 5779 5780 5780 5780 5781 5781 5781 5781 5781 5780 5780 5780 5780 5779 5779 5779 5779 5779 5779 5779 5778 5777 5776 5776 5776 5775 5775 5775 5775 5775 5775 5774 5775 5775 5776 5777 5777 5778 5778 5779 5779 5780 5780 5781 5781 5781 5781 5781
5771 5772 5772 5773 5773 5774 5774 5774 5774 5774 5774 5774 5775 5775 5776 5776 5776 5776 5776 5776 5777 5777 5777 5776 5776 5776 5776 5776 5776 5777 5778 5779 5780 5780 5779 5779 5779 5779 5779 5779 5779 5779 5779 5779 5779 5778 5778 5778 5778 5777 5777 5777 5777 5777 5776 5777 5777 5776 5776 5775 5775 5774 5773 5773 5773 5773 5773 5773 5772 5772 5772 5773 5773 5774 5774 5775 5775 5776 5777 5777 5778 5778 5778 5779 5779 5779
5772 5773 5773 5773 5773 5774 5775 5774 5774 5774 5773 5774 5774 5775 5776 5776 5776 5776 5776 5776 5776 5776 5776 5776 5776 5776 5776 5775 5775 5775 5777 5778 5779 5779 5779 5779 5779 5779 5778 5778 5778 5778 5778 5778 5778 5777 5776 5775 5775 5775 5775 5775 5774 5774 5774 5774 5774 5774 5774 5774 5773 5772 5771 5771 5771 5770 5770 5770 5770 5770 5770 5770 5770 5771 5771 5772 5772 5773 5774 5775 5776 5776 5776 5776 5776 5776
5771 5772 5773 5773 5773 5774 5774 5773 5773 5773 5773 5774 5775 5775 5775 5775 5776 5775 5775 5775 5775 5776 5776 5776 5776 5775 5775 5775 5775 5775 5775 5776 5777 5777 5778 5778 5778 5777 5776 5775 5776 5776 5776 5777 5777 5777 5776 5774 5774 5773 5773 5773 5772 5771 5771 5771 5771 5771 5771 5771 5770 5770 5769 5769 5769 5768 5767 5767 5768 5768 5768 5768 5768 5768 5768 5769 5769 5770 5771 5772 5773 5773 5773 5773 5773 5773
5770 5771 5772 5773 5773 5773 5772 5771 5771 5772 5773 5774 5774 5774 5774 5775 5776 5776 5775 5775 5775 5776 5776 5776 5775 5775 5774 5774 5774 5774 5774 5774 5775 5775 5775 5776 5775 5775 5774 5773 5774 5774 5773 5773 5773 5774 5774 5774 5773 5772 5771 5771 5770 5769 5768 5768 5768 5768 5768 5768 5767 5767 5766 5766 5766 5766 5765 5765 5765 5765 5765 5765 5765 5765 5766 5766 5767 5767 5768 5769 5770 5770 5770 5770 5771 5771
5770 5770 5771 5772 5772 5771 5770 5770 5770 5771 5772 5772 5773 5773 5774 5775 5775 5775 5775 5774 5774 5775 5775 5775 5775 5774 5773 5773 5773 5772 5772 5773 5773 5772 5773 5773 5773 5772 5772 5772 5771 5772 5771 5770 5770 5770 5770 5771 5771 5770 5769 5768 5767 5766 5765 5765 5765 5765 5765 5765 5764 5764 5763 5763 5763 5764 5763 5763 5763 5763 5762 5762 5762 5763 5763 5763 5764 5764 5765 5766 5766 5767 5767 5767 5768 5767
5769 5769 5770 5770 5770 5769 5768 5768 5769 5771 5772 5771 5772 5772 5773 5774 5774 5774 5774 5773 5773 5773 5774 5774 5774 5773 5772 5772 5772 5771 5771 5770 5771 5771 5771 5771 5770 5770 5770 5770 5770 5770 5769 5768 5767 5767 5767 5767 5767 5767 5766 5765 5765 5763 5763 5762 5762 5762 5762 5762 5761 5761 5760 5760 5760 5761 5761 5761 5760 5760 5760 5760 5760 5760 5760 5761 5761 5761 5762 5762 5763 5763 5764 5764 5764 5764
5767 5768 5769 5769 5768 5767 5767 5767 5768 5769 5770 5770 5770 5770 5770 5771 5772 5772 5773 5773 5772 5772 5773 5773 5772 5772 5772 5771 5771 5770 5770 5770 5770 5770 5770 5770 5770 5770 5769 5769 5768 5767 5767 5766 5766 5765 5765 5764 5764 5764 5763 5762 5761 5761 5760 5760 5759 5759 5759 5759 5759 5759 5758 5757 5758 5758 5758 5758 5757 5757 5757 5757 5757 5757 5757 5758 5758 5758 5758 5759 5760 5761 5761 5761 5761 5761
5765 5766 5767 5768 5767 5766 5766 5766 5766 5767 5768 5768 5768 5768 5769 5769 5770 5770 5771 5771 5771 5772 5772 5772 5771 5771 5770 5770 5770 5769 5768 5769 5769 5769 5768 5768 5768 5768 5768 5767 5766 5766 5765 5764 5763 5763 5762 5762 5762 5762 5761 5760 5759 5758 5758 5757 5757 5758 5758 5758 5758 5756 5755 5755 5755 5755 5754 5754 5754 5754 5754 5754 5754 5754 5754 5754 5754 5754 5755 5756 5757 5757 5758 5758 5757 5757
5763 5764 5766 5766 5766 5766 5765 5765 5765 5766 5766 5766 5766 5766 5767 5767 5767 5768 5768 5769 5770 5770 5770 5770 5770 5769 5768 5768 5768 5768 5767 5768 5767 5767 5766 5766 5765 5766 5766 5766 5765 5764 5763 5761 5759 5758 5758 5759 5759 5759 5758 5758 5757 5756 5756 5755 5755 5756 5756 5756 5755 5754 5754 5753 5752 5751 5751 5751 5751 5750 5750 5750 5751 5751 5751 5751 5751 5751 5751 5752 5753 5754 5754 5754 5754 5754
5761 5762 5763 5764 5765 5765 5764 5763 5763 5764 5764 5764 5764 5764 5764 5765 5765 5766 5766 5767 5767 5768 5768 5768 5768 5767 5767 5766 5766 5766 5767 5767 5767 5766 5764 5763 5763 5763 5763 5763 5763 5762 5761 5760 5758 5756 5754 5754 5754 5753 5753 5753 5753 5753 5752 5752 5752 5753 5753 5751 5750 5751 5752 5751 5749 5748 5748 5747 5747 5747 5747 5747 5747 5748 5748 5747 5747 5747 5747 5749 5750 5751 5751 5750 5750 5750
5759 5760 5761 5762 5762 5763 5763 5762 5761 5762 5762 5763 5762 5763 5763 5763 5763 5764 5764 5765 5765 5765 5765 5766 5766 5766 5765 5764 5764 5764 5765 5766 5766 5764 5762 5761 5761 5761 5761 5760 5760 5760 5759 5758 5757 5754 5752 5750 5749 5749 5749 5749 5749 5749 5749 5749 5749 5749 5749 5748 5747 5747 5747 5746 5745 5745 5744 5744 5744 5744 5743 5743 5743 5743 5743 5743 5743 5743 5744 5745 5746 5746 5746 5747 5747 5747
5758 5758 5759 5759 5759 5760 5760 5760 5760 5760 5760 5761 5761 5761 5762 5761 5761 5762 5762 5763 5763 5764 5764 5764 5765 5765 5764 5763 5762 5762 5763 5764 5764 5762 5761 5760 5760 5760 5759 5758 5758 5757 5757 5756 5755 5753 5751 5750 5748 5747 5746 5746 5746 5746 5746 5746 5746 5745 5745 5744 5744 5743 5742 5742 5742 5742 5741 5741 5740 5740 5740 5740 5739 5739 5739 5739 5739 5740 5740 5741 5742 5742 5742 5742 5743 5743
5756 5756 5756 5757 5757 5757 5758 5758 5758 5758 5758 5759 5760 5760 5760 5760 5760 5760 5760 5761 5761 5762 5762 5762 5763 5763 5762 5761 5761 5761 5761 5761 5761 5760 5759 5758 5758 5758 5757 5756 5756 5756 5755 5754 5753 5751 5750 5749 5748 5747 5746 5745 5745 5744 5743 5742 5742 5741 5741 5740 5740 5739 5739 5739 5739 5739 5738 5738 5737 5736 5736 5736 5736 5735 5735 5735 5736 5736 5737 5737 5738 5738 5737 5738 5739 5739
5755 5755 5754 5755 5755 5756 5756 5757 5757 5757 5757 5757 5758 5758 5758 5759 5759 5759 5759 5759 5759 5760 5760 5760 5760 5761 5760 5759 5759 5759 5759 5758 5758 5758 5757 5757 5756 5756 5755 5754 5754 5754 5754 5753 5752 5750 5748 5747 5747 5746 5745 5745 5744 5743 5741 5740 5739 5738 5738 5738 5737 5737 5735 5735 5736 5736 5735 5734 5734 5733 5733 5732 5732 5732 5732 5732 5733 5733 5733 5733 5734 5733 5733 5734 5735 5735
5754 5754 5754 5754 5754 5755 5755 5756 5756 5756 5756 5755 5755 5756 5757 5757 5757 5758 5758 5758 5758 5758 5758 5758 5758 5758 5758 5758 5757 5757 5757 5756 5756 5755 5755 5755 5754 5754 5753 5752 5751 5751 5750 5750 5749 5748 5747 5746 5745 5744 5744 5743 5742 5741 5740 5739 5738 5737 5737 5736 5736 5735 5733 5733 5733 5733 5732 5730 5729 5729 5729 5729 5729 5730 5730 5730 5730 5730 5730 5730 5730 5730 5730 5731 5731 5731
5752 5752 5753 5753 5753 5753 5754 5754 5755 5755 5754 5753 5753 5754 5755 5755 5755 5755 5756 5756 5756 5756 5756 5756 5756 5756 5756 5756 5755 5755 5754 5754 5754 5753 5752 5752 5752 5751 5750 5749 5748 5748 5747 5747 5746 5746 5745 5744 5744 5742 5741 5740 5739 5739 5739 5738 5737 5736 5735 5735 5734 5732 5731 5730 5729 5729 5728 5727 5727 5727 5726 5726 5726 5726 5726 5726 5726 5727 5727 5727 5727 5727 5726 5727 5727 5726
5750 5750 5751 5751 5752 5752 5752 5752 5753 5753 5752 5752 5751 5752 5753 5753 5753 5753 5753 5753 5753 5753 5754 5754 5754 5754 5754 5754 5753 5753 5752 5752 5752 5751 5750 5749 5749 5748 5747 5746 5745 5744 5744 5743 5743 5743 5743 5743 5742 5740 5739 5738 5737 5738 5738 5737 5736 5735 5734 5733 5731 5730 5729 5728 5726 5725 5724 5725 5726 5726 5726 5726 5726 5725 5725 5725 5725 5725 5726 5725 5725 5724 5723 5723 5722 5722
5749 5749 5750 5750 5750 5750 5750 5750 5751 5751 5751 5751 5750 5750 5750 5751 5751 5750 5750 5751 5751 5751 5751 5752 5752 5752 5752 5751 5751 5751 5750 5749 5749 5748 5747 5746 5746 5745 5745 5744 5743 5742 5741 5740 5739 5740 5740 5740 5739 5738 5737 5736 5735 5735 5735 5735 5734 5733 5732 5731 5730 5729 5728 5727 5725 5724 5723 5723 5724 5724 5724 5724 5724 5723 5723 5722 5722 5722 5722 5722 5721 5720 5719 5719 5719 5718
5748 5748 5748 5749 5749 5749 5749 5749 5749 5750 5750 5750 5749 5749 5749 5749 5749 5748 5749 5749 5749 5749 5749 5749 5749 5749 5749 5749 5749 5748 5748 5747 5746 5746 5745 5744 5744 5743 5742 5741 5741 5740 5738 5737 5736 5736 5736 5736 5736 5736 5735 5734 5733 5732 5732 5732 5731 5730 5729 5728 5727 5727 5726 5725 5724 5723 5722 5721 5720 5720 5720 5720 5719 5719 5719 5718 5718 5717 5716 5716 5715 5714 5714 5714 5715 5714
5746 5746 5747 5747 5747 5747 5747 5747 5747 5748 5748 5748 5748 5748 5747 5747 5747 5747 5747 5747 5747 5747 5746 5746 5746 5746 5746 5746 5746 5745 5745 5744 5743 5743 5742 5741 5741 5740 5739 5738 5737 5736 5736 5735 5734 5733 5732 5732 5732 5732 5732 5732 5731 5730 5730 5729 5728 5727 5726 5725 5724 5723 5722 5722 5722 5721 5720 5719 5718 5717 5716 5715 5715 5716 5716 5715 5715 5713 5712 5711 5710 5710 5711 5711 5711 5710
5744 5744 5745 5745 5745 5745 5745 5745 5745 5745 5745 5745 5746 5746 5746 5745 5745 5744 5744 5745 5745 5744 5744 5744 5744 5743 5743 5743 5743 5742 5742 5741 5740 5740 5739 5738 5738 5737 5736 5735 5734 5733 5732 5731 5730 5729 5728 5728 5728 5728 5728 5728 5728 5727 5727 5726 5726 5725 5723 5722 5721 5720 5719 5719 5718 5718 5717 5717 5716 5715 5714 5713 5712 5712 5712 5712 5711 5710 5709 5708 5708 5708 5708 5707 5707 5706
5741 5742 5742 5742 5742 5743 5743 5743 5743 5743 5743 5743 5743 5743 5743 5743 5742 5742 5742 5742 5742 5742 5741 5741 5740 5740 5740 5740 5740 5740 5739 5738 5738 5737 5737 5736 5735 5734 5733 5732 5731 5730 5728 5728 5727 5726 5725 5724 5723 5723 5723 5723 5723 5723 5723 5723 5723 5722 5721 5720 5718 5717 5716 5716 5715 5714 5714 5713 5713 5712 5711 5710 5709 5708 5708 5708 5707 5706 5705 5704 5704 5704 5704 5704 5703 5702
5739 5739 5739 5739 5740 5740 5740 5740 5740 5740 5740 5740 5740 5741 5741 5740 5740 5739 5739 5739 5739 5739 5739 5738 5738 5737 5737 5737 5737 5737 5736 5735 5735 5734 5734 5733 5732 5731 5730 5728 5727 5726 5725 5724 5723 5722 5721 5720 5720 5719 5718 5718 5718 5719 5719 5718 5718 5718 5717 5716 5715 5714 5713 5712 5711 5710 5710 5709 5708 5708 5707 5706 5706 5705 5704 5704 5703 5701 5700 5699 5699 5700 5699 5699 5699 5698
5736 5736 5736 5736 5737 5737 5737 5737 5737 5737 5737 5737 5737 5738 5738 5738 5737 5737 5737 5736 5736 5736 5736 5736 5735 5735 5734 5734 5733 5733 5733 5733 5732 5731 5730 5729 5728 5727 5727 5725 5724 5723 5721 5720 5719 5718 5717 5716 5715 5715 5714 5713 5713 5714 5714 5714 5713 5713 5712 5711 5710 5709 5709 5708 5707 5706 5705 5704 5703 5703 5703 5702 5701 5700 5700 5700 5699 5698 5696 5695 5695 5695 5695 5694 5694 5693
5734 5734 5734 5734 5734 5734 5734 5734 5734 5734 5734 5734 5734 5734 5734 5735 5734 5734 5734 5733 5733 5733 5733 5733 5732 5732 5732 5731 5730 5730 5730 5729 5729 5728 5727 5726 5725 5724 5723 5722 5721 5719 5718 5717 5716 5715 5714 5713 5712 5711 5710 5709 5709 5709 5709 5709 5708 5708 5707 5706 5705 5704 5704 5703 5703 5702 5701 5700 5698 5697 5697 5697 5696 5696 5695 5695 5694 5694 5693 5692 5691 5691 5690 5689 5688 5688
5731 5731 5731 5731 5731 5731 5731 5731 5731 5731 5731 5731 5731 5731 5731 5731 5731 5731 5731 5730 5730 5729 5729 5729 5729 5729 5728 5728 5727 5726 5726 5725 5724 5723 5723 5722 5721 5720 5719 5718 5717 5716 5714 5713 5712 5711 5710 5709 5709 5708 5706 5706 5705 5704 5704 5704 5703 5703 5703 5702 5701 5700 5699 5698 5697 5697 5697 5696 5695 5693 5693 5692 5692 5692 5691 5690 5689 5689 5688 5687 5686 5685 5684 5683 5682 5682
5728 5728 5728 5728 5728 5728 5728 5728 5728 5728 5728 5728 5728 5728 5728 5728 5727 5727 5727 5727 5726 5726 5725 5725 5724 5724 5724 5723 5723 5722 5721 5721 5720 5719 5718 5718 5717 5716 5715 5714 5713 5712 5711 5709 5708 5707 5706 5706 5705 5704 5703 5702 5701 5700 5700 5699 5698 5698 5697 5697 5697 5696 5695 5694 5693 5692 5692 5691 5690 5689 5688 5688 5688 5687 5687 5686 5685 5684 5683 5682 5681 5679 5678 5677 5676 5676
5726 5726 5725 5725 5726 5726 5726 5725 5725 5725 5725 5725 5725 5725 5725 5725 5724 5724 5724 5723 5723 5722 5722 5722 5721 5720 5720 5719 5718 5718 5717 5716 5716 5715 5714 5714 5713 5712 5711 5710 5709 5707 5706 5705 5704 5703 5702 5701 5701 5700 5699 5698 5697 5696 5695 5694 5693 5693 5692 5692 5691 5690 5690 5689 5689 5688 5687 5686 5685 5684 5683 5682 5682 5682 5681 5681 5680 5679 5678 5677 5676 5674 5673 5672 5671 5671